Location: Jackson Park
(37.2862°N, 79.9123°W)
Time: 14:31:27
(UTC+00:00)

Vanguard 2 - Pass Details

Date: 18 May 2026
Orbit: 553 x 2894 km, 32.9° (Epoch: 6 June)

Event Time Altitude Azimuth Distance (km) Brightness Sun altitude
Rises 08:47:40 0° 266° (W) 6,565 - -14.4°
Exits shadow 08:49:26 - 266° (W) 6,181 11.6 -14.2°
Reaches altitude 10° 08:51:53 10° 265° (W) 5,655 11.4 -13.8°
Maximum altitude 09:09:39 75° 184° (S) 2,788 10.2 -10.9°
Drops below altitude 10° 09:23:45 10° 102° (ESE) 4,626 12.2 -8.6°
Sets 09:26:49 0° 101° (E) 5,365 12.6 -8.1°
